カタログに戻る

ARIANE 2 DEB

LostGTO
NORAD 33553·DEBRIS·🇫🇷 France

打ち上げ Jan 27, 1989 から Guiana Space Centre

Loading…

TLE

古いSource: Space-Track

元期: Jan 23, 2009, 02:56 UTC

1 33553U 89006AV  09023.12227312 -.00010429  00000-0 -88916-1 0  9997
2 33553 008.8742 034.7486 7178557 258.1614 020.5595 02.26397810 17427

AllMySatでARIANE 2 DEBをリアルタイム追跡

Download on the App Store